User: anonymous   Login
Location: Ammerl�gen
(47.2167°N, 9.6000°E)
Time: 22:07:04
(UTC+00:00)
Language:

QB50P2 - Orbit

View from above orbital plane
View from above orbital plane
View from above satellite
View from above satellite

Ground track
Ground track

The orbit data is extracted from the following two-line orbital elements,

1 40032U 14033Y   21339.06910003  .00000697  00000-0  79742-4 0  9992
2 40032  97.9257 266.3475 0011335 342.0184  18.0630 14.89168704405205
Epoch (UTC): 05 December 2021 01:39:30
Eccentricity: 0.0011335
inclination: 97.9257°
perigee height: 592 km
apogee height: 608 km
right ascension of ascending node: 266.3475°
argument of perigee: 342.0184°
revolutions per day: 14.89168704
mean anomaly at epoch: 18.0630°
orbit number at epoch: 40520

The dashed part of the orbit path shows where the satellite is in the earth's shadow,  

DLR